User: anonymous   Login
Location: Unspecified
(0.0000°N, 0.0000°E)
Time: 17:25:21
(UTC+00:00)
Language:

Sedsat-1 - Orbit

View from above orbital plane
View from above orbital plane
View from above satellite
View from above satellite

Ground track
Ground track

The orbit data is extracted from the following two-line orbital elements,

1 25509U 98061B   18116.15808509  .00000211  00000-0  26782-4 0  9991
2 25509  31.4335  89.9775 0346918 229.6102 127.3753 14.30328576 18983
Epoch (UTC): 26 April 2018 03:47:38
Eccentricity: 0.0346918
inclination: 31.4335°
perigee height: 542 km
apogee height: 1039 km
right ascension of ascending node: 89.9775°
argument of perigee: 229.6102°
revolutions per day: 14.30328576
mean anomaly at epoch: 127.3753°
orbit number at epoch: 1898

The dashed part of the orbit path shows where the satellite is in the earth's shadow,  

DLR